Weather reports worldwide

Advertisment
Marina Di Ginosa, Italy (16325): temperature & dewpoint: 10.07.2018 18:00:00 - 16.07.2018 18:00:00 (CEST)Marina Di Ginosa, Italy (16325): wind speed: 10.07.2018 18:00:00 - 16.07.2018 18:00:00 (CEST)Marina Di Ginosa, Italy (16325): wind direction: 10.07.2018 18:00:00 - 16.07.2018 18:00:00 (CEST)Marina Di Ginosa, Italy (16325): reduced air pressure: 10.07.2018 18:00:00 - 16.07.2018 18:00:00 (CEST)Marina Di Ginosa, Italy (16325): visibility: 10.07.2018 18:00:00 - 16.07.2018 18:00:00 (CEST)
Date & Time tt [°C] td [°C] ff [km/h] ff [kn] dd ppp [hPa] vv [km]
16.07.2018 18:00:00 - - - - - - -
16.07.2018 17:00:00 32,0 27,7 11 6 S 1011,8 18
16.07.2018 16:00:00 33,0 28,0 13 7 S - 10
16.07.2018 15:00:00 33,0 27,0 13 7 SE - 10
16.07.2018 14:00:00 33,6 26,6 13 7 S 1012,8 18
16.07.2018 13:00:00 32,0 26,0 18 10 S - 10
16.07.2018 12:00:00 32,0 26,0 13 7 SE - 10
16.07.2018 11:00:00 32,0 24,6 9 5 SSE 1013,4 10
16.07.2018 10:00:00 29,0 22,0 8 4 ESE - 10
16.07.2018 09:00:00 28,0 20,0 5 3 SSE - 10
16.07.2018 08:00:00 27,0 18,3 4 2 W 1012,2 20
16.07.2018 07:00:00 24,0 18,0 5 3 WNW - 10
16.07.2018 06:00:00 - - - - - - -
16.07.2018 05:00:00 21,6 16,1 11 6 WNW 1012,4 25
16.07.2018 04:00:00 22,0 16,0 11 6 WNW - 10
16.07.2018 03:00:00 - - - - - - -
16.07.2018 02:00:00 22,0 14,9 9 5 NNW 1012,4 25
16.07.2018 01:00:00 - - - - - - -
16.07.2018 00:00:00 24,0 16,0 2 1 ENE - 10
15.07.2018 23:00:00 23,4 16,0 8 4 NNE 1012,3 20
15.07.2018 22:00:00 25,0 17,0 4 2 NE - 10
15.07.2018 21:00:00 27,0 16,0 8 4 SW - 10
15.07.2018 20:00:00 28,8 17,7 8 4 SW 1011,3 20
15.07.2018 19:00:00 29,0 23,0 9 5 SSW - 10
15.07.2018 18:00:00 31,0 23,0 11 6 S - 10
15.07.2018 17:00:00 32,0 22,7 11 6 S 1011,6 20
15.07.2018 16:00:00 33,0 23,0 11 6 S - 10
15.07.2018 15:00:00 33,0 22,0 11 6 S - 10
15.07.2018 14:00:00 32,2 22,6 11 6 S 1012,3 20
15.07.2018 13:00:00 31,0 21,0 9 5 SSE - 10
15.07.2018 12:00:00 30,0 21,0 9 5 SSE - 10
15.07.2018 11:00:00 31,6 20,9 8 4 SSE 1013,2 20
15.07.2018 10:00:00 30,0 20,0 8 4 S - 10
15.07.2018 09:00:00 29,0 17,0 4 2 W - 10
15.07.2018 08:00:00 25,0 15,9 8 4 WNW 1013,6 25
15.07.2018 07:00:00 21,0 14,0 9 5 NW - 10
15.07.2018 06:00:00 20,0 11,0 11 6 NNW - 10
15.07.2018 05:00:00 19,8 12,6 9 5 NW 1013,7 25
15.07.2018 04:00:00 20,0 13,0 5 3 N - 10
15.07.2018 03:00:00 22,0 14,0 8 4 NW - 10
15.07.2018 02:00:00 22,2 13,6 9 5 NW 1014,0 25
15.07.2018 01:00:00 23,0 14,0 9 5 NW - 10
15.07.2018 00:00:00 24,0 15,0 9 5 NNW - 10
14.07.2018 23:00:00 25,0 15,9 5 3 NW 1014,2 20
14.07.2018 22:00:00 26,0 17,0 5 3 E - 10
14.07.2018 21:00:00 29,0 16,0 4 2 SW - 10
14.07.2018 20:00:00 30,4 16,4 9 5 ENE 1013,8 20
14.07.2018 19:00:00 32,0 18,0 13 7 N - 10
14.07.2018 18:00:00 32,0 21,0 8 4 SSE - 10
14.07.2018 17:00:00 32,0 22,4 11 6 SSW 1014,3 20
14.07.2018 16:00:00 32,0 24,0 15 8 SSW - 10
14.07.2018 15:00:00 33,0 23,0 16 9 SSW - 10
14.07.2018 14:00:00 32,8 23,7 16 9 S 1015,2 20
14.07.2018 13:00:00 33,0 23,0 16 9 S - 10
14.07.2018 12:00:00 33,0 22,0 15 8 SSE - 10
14.07.2018 11:00:00 33,0 21,2 15 8 SSE 1015,7 20
14.07.2018 10:00:00 32,0 18,0 9 5 W - 10
14.07.2018 09:00:00 29,0 18,0 13 7 W - 10
14.07.2018 08:00:00 26,0 17,9 9 5 WNW 1015,4 20
14.07.2018 07:00:00 23,0 17,0 5 3 NW - 10
14.07.2018 06:00:00 22,0 17,0 11 6 WNW - 10
14.07.2018 05:00:00 22,0 17,0 15 8 WNW 1016,0 20
14.07.2018 04:00:00 22,0 17,0 9 5 WNW - 10
14.07.2018 03:00:00 23,0 17,0 8 4 WNW - 10
14.07.2018 02:00:00 24,0 17,7 9 5 NW 1016,4 20
14.07.2018 01:00:00 25,0 18,0 9 5 NW - 10
14.07.2018 00:00:00 26,0 18,0 8 4 NNW - 10
13.07.2018 23:00:00 27,0 19,1 11 6 N 1016,4 20
13.07.2018 22:00:00 27,0 21,0 8 4 NNW - 10
13.07.2018 21:00:00 27,0 21,0 5 3 W - 10
13.07.2018 20:00:00 27,4 23,7 9 5 SSW 1014,6 20
13.07.2018 19:00:00 29,0 24,0 8 4 S - 10
13.07.2018 18:00:00 30,0 24,0 9 5 S - 10
13.07.2018 17:00:00 31,0 24,2 11 6 SSE 1014,1 20
13.07.2018 16:00:00 32,0 24,0 16 9 WNW - 10
13.07.2018 15:00:00 32,0 23,0 18 10 SSW - 10
13.07.2018 14:00:00 34,2 22,0 16 9 SSE 1015,0 20
13.07.2018 13:00:00 33,0 23,0 15 8 SSE - 10
13.07.2018 12:00:00 33,0 22,0 13 7 SSE - 10
13.07.2018 11:00:00 34,2 20,9 13 7 SE 1015,1 20
13.07.2018 10:00:00 33,0 17,0 9 5 NW - 10
13.07.2018 09:00:00 29,0 17,0 11 6 E - 10
13.07.2018 08:00:00 27,0 18,0 11 6 WNW 1015,1 18
13.07.2018 07:00:00 23,0 17,0 9 5 WNW - 10
13.07.2018 06:00:00 21,0 16,0 9 5 WNW - 10
13.07.2018 05:00:00 22,2 11,0 11 6 NW 1014,6 10
13.07.2018 04:00:00 21,0 -30,0 13 7 WNW - 10
13.07.2018 03:00:00 22,0 17,0 11 6 WNW - 10
13.07.2018 02:00:00 23,0 17,7 9 5 WNW 1014,5 18
13.07.2018 01:00:00 23,0 18,0 5 3 NW - 10
13.07.2018 00:00:00 24,0 20,0 8 4 NW - 10
12.07.2018 23:00:00 25,0 20,9 5 3 N 1014,4 10
12.07.2018 22:00:00 26,0 22,0 8 4 N - 10
12.07.2018 21:00:00 26,0 22,0 8 4 NE - 10
12.07.2018 20:00:00 27,6 22,6 8 4 E 1013,4 20
12.07.2018 19:00:00 28,0 23,0 9 5 E - 10
12.07.2018 18:00:00 - - - - - - -
12.07.2018 17:00:00 31,0 22,6 15 8 S 1013,3 20
12.07.2018 16:00:00 32,0 22,0 16 9 SSW - 10
12.07.2018 15:00:00 32,0 22,0 18 10 S - 10
12.07.2018 14:00:00 32,2 21,7 13 7 S 1013,6 20
12.07.2018 13:00:00 32,0 22,0 15 8 S - 10
12.07.2018 12:00:00 33,0 19,0 9 5 SSW - 10
12.07.2018 11:00:00 33,0 14,6 13 7 WNW 1014,0 20
12.07.2018 10:00:00 31,0 16,0 9 5 S - 10
12.07.2018 09:00:00 28,0 16,0 5 3 WNW - 10
12.07.2018 08:00:00 26,0 16,6 5 3 W 1013,5 25
12.07.2018 07:00:00 24,0 18,0 8 4 WNW - 10
12.07.2018 06:00:00 20,0 19,0 11 6 WNW - 10
12.07.2018 05:00:00 20,2 18,7 11 6 WNW 1013,4 25
12.07.2018 04:00:00 20,0 19,0 11 6 WNW - 10
12.07.2018 03:00:00 21,0 19,0 8 4 NW - 10
12.07.2018 02:00:00 21,2 19,1 8 4 NW 1013,3 25
12.07.2018 01:00:00 23,0 21,0 5 3 NNW - 10
12.07.2018 00:00:00 23,0 21,0 5 3 N - 10
11.07.2018 23:00:00 24,0 22,1 8 4 NNE 1013,3 20
11.07.2018 22:00:00 25,0 23,0 9 5 ENE - 10
11.07.2018 21:00:00 25,0 23,0 9 5 ENE - 10
11.07.2018 20:00:00 26,4 23,5 8 4 SE 1012,4 18
11.07.2018 19:00:00 27,0 23,0 9 5 SE - 10
11.07.2018 18:00:00 28,0 23,0 15 8 S - 10
11.07.2018 17:00:00 30,0 23,4 18 10 S 1012,1 18
11.07.2018 16:00:00 30,0 24,0 18 10 SSE - 10
11.07.2018 15:00:00 30,0 22,0 21 11 SSE - 10
11.07.2018 14:00:00 30,4 23,1 16 9 SE 1012,5 18
11.07.2018 13:00:00 30,0 23,0 15 8 SE - 10
11.07.2018 12:00:00 30,0 22,0 13 7 SE - 10
11.07.2018 11:00:00 28,0 21,3 11 6 SE 1013,4 10
11.07.2018 10:00:00 27,0 21,0 9 5 SE - 10
11.07.2018 09:00:00 26,0 21,0 5 3 ESE - 10
11.07.2018 08:00:00 24,0 18,2 5 3 WNW 1013,2 20
11.07.2018 07:00:00 21,0 17,0 5 3 NW - 10
11.07.2018 06:00:00 18,0 16,0 9 5 NW - 10
11.07.2018 05:00:00 18,0 15,4 8 4 NW 1012,5 25
11.07.2018 04:00:00 19,0 16,0 5 3 N - 10
11.07.2018 03:00:00 20,0 17,0 9 5 NW - 10
11.07.2018 02:00:00 21,0 18,2 5 3 NNW 1013,2 25
11.07.2018 01:00:00 21,0 17,0 5 3 NW - 10
11.07.2018 00:00:00 22,0 19,0 8 4 NNE - 10
10.07.2018 23:00:00 22,8 20,1 4 2 NNW 1013,2 20
10.07.2018 22:00:00 24,0 20,0 5 3 ESE - 10
10.07.2018 21:00:00 24,0 18,0 4 2 WSW - 10
10.07.2018 20:00:00 27,0 19,9 8 4 SSW 1012,3 25
10.07.2018 19:00:00 27,0 21,0 11 6 SSW - 10
10.07.2018 18:00:00 28,0 21,0 13 7 SSW - 10

tt = temperature
td = dewpoint
ff = wind speed
dd = wind direction
ppp = reduced air pressure
vv = visibility

Next stations